Tracking 29892 objects as of 21-Nov-2024
HD Live streaming from Space Station
objects crossing your sky now

CZ-2C R/B

Track CZ-2C R/B now!
10-day predictions


NORAD ID: 43610
Int'l Code: 2018-068B
Perigee: 652.4 km
Apogee: 775.4 km
Inclination: 98.7 °
Period: 98.9 minutes
Semi major axis: 7084 km
RCS: Unknown
Launch date: September 6, 2008
Source: People's Republic of China (PRC)
Launch site: Taiyaun Space Center, China (TSC)

Note: This is a ROCKET BODY
Your satellite tracking list
Your tracking list is empty




NASA's NSSDC Master Catalog

Two Line Element Set (TLE):
1 43610U 18068B   24325.88361707  .00000870  00000-0  20097-3 0  9999
2 43610  98.7187 133.7798 0086799 301.3206  57.9515 14.55790790329450
Source of the keplerian elements: AFSPC